Location: Peterborough
(44.3091°N, 78.3197°W)
Time: 07:13:47
(UTC-04:00)

Vanguard 3 - Pass Details

Date: 24 March 2023
Orbit: 507 x 3246 km, 33.4° (Epoch: 04 June)

Event Time Altitude Azimuth Distance (km) Brightness Sun altitude
Rises 05:46:44 0° 246° (WSW) 7,056 - -15.4°
Reaches altitude 10° 05:51:29 10° 243° (WSW) 6,143 - -14.6°
Exits shadow 05:53:31 15° 241° (WSW) 5,756 10.8 -14.2°
Maximum altitude 06:10:27 56° 173° (S) 3,379 10.2 -11.3°
Drops below altitude 10° 06:24:52 10° 101° (E) 4,808 12.4 -8.8°
Sets 06:28:04 0° 97° (E) 5,500 13.1 -8.2°
